Precipitable_Water
0.28 0.30 0.32 0.32 0.33 0.35 0.35 0.37 0.38 0.39 0.41 0.42 0.43 0.43 0.42 0.43 0.46 0.45 0.44 0.45 0.44 0.41 0.45 0.50 0.49 0.50 0.50 0.51 0.54 0.57 0.58 0.52 0.46 0.62 0.80 0.95 0.89 0.83 0.80 0.82 0.78 0.75 0.70
0.30 0.31 0.32 0.34 0.35 0.36 0.37 0.38 0.40 0.40 0.41 0.42 0.45 0.46 0.47 0.48 0.46 0.45 0.46 0.44 0.44 0.44 0.44 0.48 0.51 0.49 0.49 0.54 0.50 0.51 0.55 0.61 0.49 0.46 0.61 0.70 0.87 0.92 0.80 0.80 0.78 0.76 0.73
0.31 0.33 0.34 0.35 0.36 0.37 0.38 0.40 0.41 0.41 0.42 0.43 0.44 0.45 0.47 0.49 0.48 0.48 0.49 0.49 0.47 0.45 0.47 0.46 0.48 0.49 0.49 0.53 0.52 0.49 0.51 0.55 0.56 0.48 0.45 0.57 0.68 0.85 0.79 0.80 0.80 0.76 0.73
0.33 0.34 0.34 0.37 0.39 0.41 0.43 0.44 0.44 0.44 0.44 0.44 0.46 0.46 0.47 0.49 0.51 0.52 0.50 0.53 0.51 0.48 0.52 0.47 0.45 0.46 0.48 0.52 0.51 0.50 0.49 0.50 0.56 0.52 0.48 0.47 0.58 0.66 0.71 0.73 0.73 0.80 0.73
0.33 0.35 0.36 0.39 0.40 0.42 0.43 0.45 0.47 0.48 0.49 0.49 0.49 0.48 0.50 0.50 0.50 0.51 0.50 0.51 0.53 0.53 0.50 0.49 0.54 0.49 0.55 0.55 0.53 0.50 0.49 0.48 0.48 0.52 0.44 0.45 0.46 0.52 0.56 0.67 0.67 0.79 0.78
0.34 0.35 0.37 0.39 0.41 0.42 0.45 0.48 0.49 0.51 0.52 0.52 0.51 0.49 0.49 0.48 0.48 0.50 0.52 0.51 0.51 0.50 0.51 0.54 0.56 0.54 0.54 0.53 0.51 0.50 0.48 0.47 0.49 0.48 0.47 0.41 0.42 0.49 0.60 0.57 0.66 0.75 0.67
0.35 0.36 0.37 0.39 0.41 0.44 0.47 0.49 0.50 0.51 0.52 0.52 0.52 0.52 0.49 0.47 0.46 0.49 0.53 0.55 0.53 0.53 0.53 0.55 0.56 0.49 0.50 0.49 0.47 0.47 0.46 0.46 0.46 0.49 0.49 0.44 0.46 0.51 0.57 0.54 0.68 0.71 0.71
0.34 0.36 0.38 0.41 0.43 0.47 0.47 0.48 0.51 0.52 0.52 0.52 0.51 0.52 0.46 0.44 0.45 0.49 0.52 0.53 0.56 0.53 0.53 0.56 0.51 0.49 0.50 0.50 0.45 0.41 0.41 0.44 0.47 0.50 0.51 0.55 0.55 0.57 0.65 0.59 0.59 0.73 0.80
0.34 0.37 0.41 0.45 0.46 0.46 0.46 0.49 0.52 0.52 0.51 0.48 0.45 0.41 0.42 0.42 0.46 0.48 0.50 0.52 0.53 0.52 0.56 0.56 0.55 0.50 0.51 0.49 0.44 0.39 0.38 0.37 0.41 0.51 0.58 0.59 0.65 0.65 0.66 0.65 0.59 0.60 0.67
0.37 0.40 0.45 0.48 0.45 0.45 0.48 0.51 0.52 0.50 0.47 0.45 0.44 0.42 0.42 0.45 0.48 0.49 0.51 0.53 0.51 0.50 0.55 0.57 0.54 0.51 0.50 0.47 0.41 0.38 0.36 0.34 0.41 0.44 0.49 0.59 0.68 0.64 0.72 0.67 0.66 0.55 0.65
0.41 0.45 0.47 0.45 0.46 0.48 0.49 0.50 0.48 0.47 0.45 0.42 0.39 0.41 0.45 0.46 0.47 0.50 0.52 0.51 0.50 0.50 0.50 0.50 0.51 0.49 0.48 0.45 0.44 0.40 0.38 0.42 0.46 0.47 0.52 0.57 0.64 0.63 0.68 0.77 0.67 0.61 0.61
0.43 0.47 0.45 0.45 0.48 0.49 0.49 0.48 0.48 0.46 0.42 0.40 0.37 0.37 0.39 0.41 0.43 0.45 0.47 0.49 0.49 0.50 0.48 0.47 0.46 0.45 0.46 0.47 0.45 0.43 0.46 0.52 0.55 0.53 0.52 0.51 0.56 0.59 0.65 0.73 0.69 0.68 0.76
0.46 0.45 0.45 0.48 0.49 0.50 0.49 0.48 0.46 0.45 0.43 0.40 0.37 0.38 0.38 0.38 0.38 0.40 0.43 0.45 0.46 0.46 0.46 0.45 0.44 0.44 0.47 0.47 0.47 0.47 0.52 0.54 0.53 0.51 0.53 0.54 0.57 0.62 0.69 0.68 0.70 0.72 0.82
0.45 0.44 0.47 0.48 0.49 0.51 0.53 0.52 0.47 0.44 0.43 0.41 0.40 0.39 0.41 0.41 0.41 0.41 0.40 0.41 0.43 0.44 0.45 0.46 0.48 0.47 0.48 0.50 0.49 0.52 0.57 0.58 0.56 0.58 0.58 0.63 0.64 0.63 0.66 0.70 0.71 0.76 0.75
0.44 0.47 0.48 0.50 0.50 0.50 0.52 0.51 0.48 0.49 0.49 0.47 0.51 0.54 0.53 0.52 0.55 0.55 0.50 0.45 0.44 0.46 0.46 0.49 0.47 0.47 0.46 0.47 0.48 0.54 0.58 0.60 0.56 0.58 0.60 0.63 0.65 0.70 0.70 0.74 0.73 0.72 0.62
0.45 0.48 0.51 0.51 0.52 0.53 0.53 0.55 0.63 0.65 0.65 0.65 0.64 0.62 0.62 0.63 0.65 0.65 0.63 0.61 0.60 0.58 0.55 0.53 0.53 0.53 0.50 0.45 0.46 0.47 0.51 0.54 0.57 0.61 0.67 0.68 0.66 0.68 0.68 0.67 0.67 0.60 0.51
0.47 0.51 0.52 0.53 0.54 0.54 0.56 0.57 0.57 0.64 0.69 0.70 0.69 0.67 0.67 0.66 0.67 0.68 0.69 0.68 0.66 0.63 0.56 0.56 0.55 0.56 0.55 0.54 0.53 0.55 0.58 0.63 0.69 0.69 0.69 0.68 0.68 0.65 0.65 0.63 0.58 0.56 0.69
0.52 0.54 0.54 0.55 0.57 0.57 0.58 0.59 0.61 0.59 0.58 0.60 0.66 0.66 0.67 0.68 0.67 0.66 0.66 0.65 0.59 0.60 0.58 0.57 0.57 0.59 0.60 0.60 0.62 0.63 0.65 0.67 0.67 0.67 0.66 0.67 0.67 0.63 0.57 0.55 0.64 0.76 0.79
0.53 0.55 0.57 0.57 0.58 0.59 0.61 0.62 0.61 0.60 0.60 0.60 0.62 0.64 0.66 0.66 0.66 0.66 0.66 0.62 0.59 0.58 0.60 0.60 0.61 0.62 0.63 0.64 0.64 0.65 0.66 0.66 0.67 0.66 0.64 0.60 0.57 0.55 0.65 0.78 0.80 0.78 0.69
0.55 0.57 0.58 0.58 0.58 0.58 0.60 0.59 0.59 0.60 0.59 0.58 0.58 0.59 0.62 0.61 0.58 0.60 0.61 0.61 0.60 0.60 0.61 0.60 0.61 0.61 0.61 0.62 0.62 0.62 0.61 0.59 0.58 0.59 0.59 0.60 0.64 0.78 0.79 0.81 0.74 0.68 0.68
0.55 0.56 0.58 0.58 0.58 0.58 0.59 0.59 0.59 0.59 0.58 0.58 0.58 0.60 0.59 0.57 0.56 0.58 0.59 0.60 0.60 0.59 0.57 0.55 0.56 0.57 0.58 0.58 0.60 0.62 0.63 0.64 0.67 0.68 0.71 0.76 0.80 0.79 0.81 0.75 0.73 0.73 0.67
0.55 0.55 0.56 0.56 0.58 0.58 0.59 0.60 0.60 0.59 0.59 0.58 0.59 0.61 0.62 0.60 0.59 0.60 0.61 0.62 0.62 0.61 0.62 0.61 0.62 0.64 0.65 0.65 0.66 0.64 0.64 0.67 0.73 0.76 0.78 0.77 0.75 0.75 0.72 0.70 0.70 0.69 0.67
0.54 0.54 0.55 0.55 0.57 0.58 0.58 0.59 0.59 0.59 0.59 0.59 0.59 0.59 0.60 0.60 0.61 0.61 0.62 0.63 0.64 0.64 0.62 0.57 0.55 0.57 0.60 0.57 0.53 0.68 0.73 0.74 0.78 0.81 0.77 0.74 0.75 0.75 0.74 0.71 0.70 0.70 0.67
0.54 0.53 0.53 0.54 0.55 0.55 0.56 0.57 0.59 0.59 0.59 0.59 0.59 0.59 0.59 0.60 0.60 0.61 0.62 0.64 0.63 0.57 0.54 0.49 0.44 0.41 0.42 0.44 0.64 0.76 0.79 0.82 0.83 0.81 0.77 0.77 0.74 0.74 0.73 0.73 0.69 0.69 0.69
0.52 0.52 0.53 0.53 0.53 0.54 0.56 0.57 0.58 0.59 0.59 0.59 0.59 0.60 0.60 0.61 0.61 0.61 0.63 0.63 0.57 0.48 0.39 0.37 0.35 0.36 0.40 0.52 0.68 0.76 0.80 0.83 0.85 0.85 0.85 0.83 0.79 0.76 0.74 0.71 0.70 0.72 0.74
0.51 0.52 0.52 0.53 0.53 0.55 0.56 0.56 0.57 0.58 0.58 0.59 0.60 0.61 0.61 0.60 0.61 0.62 0.62 0.58 0.44 0.38 0.37 0.37 0.36 0.38 0.41 0.55 0.66 0.75 0.81 0.83 0.84 0.84 0.84 0.83 0.80 0.77 0.75 0.72 0.73 0.73 0.75
Wind_Speed
51 52 53 54 54 54 54 54 54 55 54 53 52 51 50 48 47 46 45 44 44 43 43 43 44 43 44 45 45 47 47 48 49 48 47 46 42 43 42 41 39 37 37
52 53 54 54 54 53 54 54 54 54 53 52 51 49 48 47 46 44 44 44 44 43 42 43 43 43 43 43 44 46 45 46 47 48 48 47 49 42 44 42 40 39 37
53 54 54 54 54 54 55 54 54 54 53 51 50 49 48 48 47 45 44 43 43 42 41 41 41 41 41 41 41 43 44 45 45 46 46 46 46 49 47 45 43 41 39
53 53 54 54 55 55 55 56 55 54 53 51 50 50 48 47 46 45 44 43 41 40 40 40 40 39 40 39 39 40 41 42 43 44 44 45 46 49 49 48 46 45 41
53 53 54 55 56 56 57 56 54 53 52 52 52 50 49 47 46 44 43 42 41 40 38 38 37 38 37 37 36 38 39 40 40 41 42 43 45 46 49 48 48 46 44
53 54 55 56 56 56 55 54 54 54 53 51 50 47 45 43 43 42 40 38 39 39 38 36 34 35 36 37 38 39 40 39 37 39 40 42 43 45 47 47 47 46 45
52 54 55 54 55 54 55 53 53 52 51 48 46 41 40 38 38 38 38 36 36 34 33 35 33 32 33 33 34 36 37 39 41 39 38 40 41 43 45 47 47 46 45
53 54 53 53 53 53 53 52 50 48 43 40 37 36 36 35 35 34 34 33 32 33 35 35 32 32 32 31 31 32 33 33 34 37 39 38 38 40 43 46 47 45 44
51 52 52 51 51 51 51 49 45 42 38 37 34 34 31 30 29 28 28 28 29 30 31 34 32 31 32 31 31 31 31 32 33 35 34 37 39 39 40 43 45 45 43
50 51 50 47 48 47 46 43 40 37 35 33 29 28 26 24 23 24 25 25 27 26 27 30 32 32 32 31 30 30 30 30 31 33 33 34 37 38 39 42 43 45 44
49 48 46 43 44 42 40 37 34 31 29 26 23 21 20 19 19 20 21 23 23 24 26 27 28 29 31 31 31 30 29 29 30 31 32 32 34 36 38 38 43 44 44
47 45 42 41 39 38 36 33 29 26 23 21 18 16 15 15 16 18 20 23 23 23 23 25 25 27 28 29 29 29 29 30 30 30 31 32 33 34 36 36 40 41 41
44 40 39 37 35 34 32 29 27 24 21 19 18 16 14 13 12 13 14 16 20 22 23 24 26 27 27 27 28 28 28 28 29 29 30 31 32 33 34 36 38 39 37
39 37 34 33 32 30 29 28 26 24 22 20 18 17 16 15 14 13 13 14 15 17 18 20 23 25 27 27 26 26 25 25 26 26 26 28 29 31 32 34 35 34 34
34 32 31 30 29 28 28 27 24 22 20 18 17 17 17 18 18 18 17 15 15 16 17 18 20 22 25 26 26 25 24 24 25 26 25 26 28 29 31 32 31 31 30
30 29 29 27 27 25 24 24 23 21 20 18 17 16 16 19 21 17 18 18 18 18 15 15 17 21 27 28 26 24 24 24 24 24 24 25 28 27 27 27 28 27 27
28 28 27 26 24 22 21 20 19 21 23 23 18 16 18 21 23 20 8 6 11 14 12 9 7 11 14 17 19 19 19 21 22 23 24 23 24 26 25 25 24 24 24
26 27 25 24 22 19 17 14 15 18 19 20 21 20 21 24 25 27 26 26 25 23 21 19 18 19 20 21 20 19 20 20 20 20 21 22 23 23 22 22 22 22 21
24 24 25 22 19 16 14 13 15 16 17 17 17 20 21 23 26 27 27 26 25 25 23 21 20 19 18 19 18 18 17 17 18 19 20 21 20 20 20 20 22 20 18
22 23 22 19 17 15 14 15 15 17 17 17 17 18 18 18 19 20 22 23 22 21 20 19 18 17 17 16 16 16 16 17 17 17 17 18 19 18 20 20 18 18 16
20 19 19 17 16 15 15 14 15 16 16 17 18 19 19 18 18 19 19 19 18 18 18 17 17 17 17 16 17 16 16 15 15 14 16 15 17 19 19 18 18 17 16
18 16 15 14 14 14 14 14 15 16 16 16 17 18 19 18 17 16 17 18 19 20 19 18 17 16 16 17 17 16 16 16 12 10 13 17 19 22 19 21 21 21 21
15 14 13 12 12 13 13 14 15 15 15 16 16 17 17 17 17 17 18 19 19 18 18 17 16 16 16 18 19 18 14 13 15 18 22 23 26 25 25 25 25 25 26
12 12 11 10 11 10 12 12 13 14 15 16 16 17 17 17 17 17 17 17 18 19 21 21 20 19 18 18 19 17 17 18 18 20 23 25 26 25 25 25 25 25 26
10 10 9 8 8 10 10 11 11 13 14 15 16 16 16 16 16 17 18 20 20 20 20 19 18 18 19 20 20 19 18 19 20 22 23 24 24 24 24 24 24 25 26
7 7 7 7 7 8 10 10 11 12 13 15 16 17 17 17 18 18 20 20 20 20 19 19 19 19 20 21 20 20 20 21 22 23 23 23 24 23 24 25 26 27 26
Wind_Direction
307 307 307 306 305 304 302 301 299 298 296 293 291 288 285 282 280 278 272 268 268 267 263 260 258 256 253 249 246 244 242 241 241 239 238 236 237 236 237 236 236 236 236
308 308 308 307 306 305 304 302 301 299 297 294 291 288 285 281 279 276 271 268 267 265 262 259 257 255 252 248 245 244 241 239 239 239 238 238 236 238 234 234 234 236 235
309 309 308 307 307 306 304 303 301 300 297 294 290 287 284 281 278 274 270 267 265 264 261 258 255 253 249 245 242 241 240 239 238 239 238 237 236 235 233 234 233 235 235
310 309 308 308 307 306 305 304 302 300 297 294 290 287 283 280 277 273 269 266 264 261 259 258 254 249 245 243 241 240 239 239 237 237 237 237 236 234 233 232 233 234 234
310 310 309 309 308 307 306 305 302 300 297 294 291 287 283 279 275 271 267 262 261 258 258 255 249 245 242 240 240 238 238 238 237 236 236 236 235 233 232 231 232 232 233
311 311 311 310 309 308 307 305 303 301 299 295 292 287 285 279 274 269 264 260 259 257 252 252 246 241 240 241 241 239 237 238 238 235 235 236 235 233 231 229 229 230 231
313 313 312 311 310 310 309 307 306 304 302 296 291 285 284 279 274 267 261 258 255 252 248 241 241 242 239 238 238 237 237 237 237 237 235 234 235 232 231 227 227 229 230
314 314 314 313 313 313 311 310 308 307 305 302 295 287 285 280 274 267 261 254 250 249 243 241 244 240 236 236 237 235 235 235 236 235 235 235 233 232 230 228 226 228 229
316 316 316 316 316 316 315 313 311 309 305 303 296 292 286 282 274 264 255 249 249 247 243 238 240 237 234 236 236 236 237 236 238 236 236 235 232 231 229 227 224 224 226
318 319 319 318 320 320 319 317 315 312 309 306 301 295 286 282 273 263 253 249 247 244 241 237 237 235 233 233 235 236 237 240 236 234 237 234 231 230 228 226 223 223 223
320 320 320 319 322 324 325 324 321 320 317 313 307 301 295 285 275 262 252 245 244 243 239 236 234 231 231 232 233 236 240 240 236 235 235 232 230 227 226 225 222 221 222
323 322 322 322 324 325 325 327 328 330 330 329 324 317 307 295 280 266 255 248 244 241 238 235 231 231 231 230 231 238 241 236 236 234 234 230 228 226 223 222 219 218 220
324 324 325 326 327 328 328 329 328 327 327 325 324 321 315 306 295 278 262 250 243 239 235 233 233 231 230 230 233 236 237 235 232 233 230 227 226 224 220 218 214 213 217
326 327 329 330 331 332 332 331 327 325 323 321 319 318 312 305 293 278 264 252 243 234 230 230 229 229 231 234 235 233 230 227 225 223 224 223 218 214 212 205 206 211 213
329 331 333 333 332 333 337 338 336 333 330 328 325 323 319 311 295 278 262 247 239 234 233 235 234 234 234 233 228 224 225 223 226 220 215 205 202 198 198 200 205 207 213
333 335 335 335 336 339 343 347 349 351 349 343 339 339 340 333 317 279 254 244 236 230 231 235 243 246 236 225 219 224 224 219 211 200 194 192 186 193 195 198 199 207 212
336 337 339 340 340 342 348 356 9 16 23 25 22 22 29 27 34 48 66 210 215 206 203 202 180 150 158 173 184 184 178 174 172 175 180 185 187 188 189 194 201 203 206
340 341 343 344 346 349 355 5 12 17 22 25 31 37 41 48 57 65 73 83 97 106 119 123 123 125 128 135 143 150 158 164 168 174 176 177 178 182 188 192 195 196 201
344 346 348 351 355 2 15 23 21 21 22 29 38 46 54 60 67 70 76 84 91 98 105 111 114 118 123 130 137 143 148 155 161 165 168 173 179 183 185 187 184 191 192
348 352 358 6 14 20 28 30 29 32 39 46 52 54 57 63 68 71 76 80 86 93 99 104 108 113 117 123 130 135 140 146 153 161 168 173 174 178 175 177 179 179 181
352 356 4 17 25 30 32 36 37 44 49 58 62 59 63 69 73 75 77 78 83 87 92 98 104 107 112 119 123 124 128 135 144 152 155 164 167 167 170 170 169 169 170
355 2 13 21 29 32 36 40 50 54 55 56 58 60 62 65 70 71 76 82 86 90 92 96 101 104 110 115 119 118 117 118 127 147 151 150 150 151 147 146 146 144 144
360 8 17 25 31 37 46 52 55 56 54 56 60 60 60 63 70 76 82 84 84 86 88 91 94 98 106 111 115 113 98 101 114 122 130 133 137 136 136 136 136 135 137
5 13 23 32 40 48 51 51 51 57 61 62 63 63 63 67 73 78 82 84 84 83 87 88 89 93 100 110 114 106 96 103 112 123 128 132 134 135 134 135 135 135 137
9 22 31 40 49 52 50 49 58 64 65 66 64 63 66 69 74 83 86 93 88 89 86 84 84 89 98 110 110 103 95 98 109 124 128 132 132 134 136 137 137 135 134
11 25 37 51 58 55 50 58 72 72 70 68 67 65 65 73 82 86 96 93 89 86 83 81 82 88 101 112 109 103 97 98 105 115 124 128 131 130 132 133 135 135 134